Regional Weather Roundup
Issued by NWS

Home | Current Version | Previous Version | Text Only | Print | Product List | Glossary Off
Versions: 1 2 3 4 5 6 7 8 9 10 11 12 13 14 15 16 17 18 19 20 21 22 23 24 25 26 27 28 29 30 31 32 33 34 35 36 37 38 39 40 41 42 43 44 45 46 47 48 49 50

493
ASUS43 KFSD 300110
RWRSD

WEATHER ROUNDUP FOR SOUTH DAKOTA
NATIONAL WEATHER SERVICE SIOUX FALLS SD
800 PM CDT MON AUG 29 2016

NOTE: "FAIR" INDICATES FEW OR NO CLOUDS BELOW 12,000 FEET WITH NO
SIGNIFICANT WEATHER AND/OR OBSTRUCTIONS TO VISIBILITY.


SDZ001>005-009-010-012>017-300200-
NORTHWEST AND NORTH CENTRAL SOUTH DAKOTA

CITY           SKY/WX    TMP DP  RH WIND       PRES   REMARKS
BUFFALO          N/A     78  45  30 E10       30.17S
FAITH            N/A     77  50  38 NE10      30.21R
MOBRIDGE       CLEAR     78  51  38 NE9       30.16S
$$

SDZ012>016-024>037-041>051-057-063-072>074-300200-
SOUTHWEST AND SOUTH CENTRAL SOUTH DAKOTA

CITY           SKY/WX    TMP DP  RH WIND       PRES   REMARKS
RAPID CTY ARPT CLEAR     73  59  61 E6        30.22F
PIERRE         PTCLDY    82  66  58 NE16      30.12R
CUSTER         CLOUDY    66  52  60 E9        30.37S
ELLSWORTH AFB  CLEAR     79  57  46 E5        30.22S
PHILIP         PTCLDY    82  67  60 N7        30.15R
PINE RIDGE     MOCLDY    78  63  59 NE5       30.21R
WINNER         FAIR      83  64  52 S9        30.13S
$$

SDZ004>011-016>023-039-040-300200-
NORTHEAST SOUTH DAKOTA

CITY           SKY/WX    TMP DP  RH WIND       PRES   REMARKS
ABERDEEN       CLOUDY    77  64  64 N12       30.14S
WATERTOWN      MOCLDY    76  64  66 NE15G21   30.16R THUNDER
SISSETON         N/A     77  69  76 N8        30.13R
$$

SDZ017-020-022-023-036>040-048>070-300200-
SOUTHEAST SOUTH DAKOTA

CITY           SKY/WX    TMP DP  RH WIND       PRES   REMARKS
SIOUX FALLS    CLOUDY    76  68  76 S6        30.15S
HURON          CLOUDY    83  68  60 S7        30.10S
CHAMBERLAIN    CLOUDY    81  68  64 SE3       30.12S
MITCHELL       PTCLDY    79  67  66 SE6       30.12S
YANKTON        PTCLDY    75  68  78 E5        30.12F
$$

ABBREVIATIONS USED IN REMARKS
   TC - TEMPERATURE IN CELSIUS
  WCI - WIND CHILL INDEX
   HX - HEAT INDEX
  VSB - VISIBILITY





USA.gov is the U.S. government's official web portal to all federal, state and local government web resources and services.